Torna al catalogo

CZ-4C DEB

AttivoSSO
NORAD 43261·DEBRIS·🇨🇳 China

Lanciato Mar 31, 2018 da Taiyuan Satellite Launch Center

Loading…

Prossimi Passaggi (prossime 24 ore)

TLE

AggiornatoSource: Space-Track

Epoca: Sep 14, 2026, 13:30 UTC

1 43261U 18031C   26257.56305535  .00004866  00000-0  37251-3 0  9998
2 43261  97.7681 341.9029 0009072  14.1790 345.9688 15.02325697457823

Traccia CZ-4C DEB in tempo reale con AllMySat

Download on the App Store